Meteo pe oră la Abadszalok

Astăzi, 3 August, Marţi

Timp Temperatura Precipitaţii Vânt Presiune Umiditate
00:00 +19°C° 0 mm 2 m/s 753 mmHg 59%
01:00 +18°C° 0 mm 2 m/s 753 mmHg 62%
02:00 +18°C° 0 mm 2 m/s 754 mmHg 64%
03:00 +18°C° 0 mm 2 m/s 754 mmHg 66%
04:00 +17°C° 0 mm 2 m/s 754 mmHg 68%
05:00 +19°C° 0 mm 2 m/s 754 mmHg 62%
06:00 +21°C° 0 mm 1 m/s 754 mmHg 56%
07:00 +23°C° 0 mm 1 m/s 755 mmHg 51%
08:00 +25°C° 0 mm 1 m/s 755 mmHg 45%
09:00 +27°C° 0 mm 1 m/s 755 mmHg 39%
10:00 +29°C° 0 mm 1 m/s 755 mmHg 33%
11:00 +29°C° 0 mm 1 m/s 754 mmHg 31%
12:00 +30°C° 0 mm 2 m/s 754 mmHg 29%
13:00 +31°C° 0 mm 2 m/s 753 mmHg 27%
14:00 +30°C° 0 mm 2 m/s 753 mmHg 28%
15:00 +30°C° 0 mm 2 m/s 752 mmHg 28%
16:00 +30°C° 0 mm 1 m/s 752 mmHg 29%
17:00 +29°C° 0 mm 2 m/s 752 mmHg 32%
18:00 +27°C° 0 mm 2 m/s 752 mmHg 34%
19:00 +26°C° 0 mm 2 m/s 752 mmHg 37%
20:00 +25°C° 0 mm 2 m/s 752 mmHg 40%
21:00 +24°C° 0 mm 2 m/s 752 mmHg 43%
22:00 +22°C° 0 mm 3 m/s 752 mmHg 46%
23:00 +21°C° 0 mm 3 m/s 752 mmHg 48%

Mâine, 4 August, Miercuri

Timp Temperatura Precipitaţii Vânt Presiune Umiditate
00:00 +21°C° 0 mm 2 m/s 752 mmHg 49%
01:00 +20°C° 0 mm 2 m/s 752 mmHg 51%
02:00 +20°C° 0.1 mm 2 m/s 752 mmHg 52%
03:00 +20°C° 0.1 mm 2 m/s 752 mmHg 54%
04:00 +20°C° 0.1 mm 2 m/s 752 mmHg 55%
05:00 +21°C° 0.1 mm 2 m/s 752 mmHg 53%
06:00 +22°C° 0.1 mm 3 m/s 752 mmHg 50%
07:00 +24°C° 0.1 mm 3 m/s 752 mmHg 48%
08:00 +27°C° 0 mm 3 m/s 752 mmHg 41%
09:00 +29°C° 0 mm 3 m/s 752 mmHg 34%
10:00 +33°C° 0 mm 3 m/s 752 mmHg 27%
11:00 +34°C° 0 mm 4 m/s 751 mmHg 25%
12:00 +34°C° 0 mm 5 m/s 751 mmHg 23%
13:00 +35°C° 0 mm 5 m/s 751 mmHg 22%
14:00 +35°C° 0 mm 5 m/s 750 mmHg 22%
15:00 +35°C° 0 mm 5 m/s 750 mmHg 22%
16:00 +35°C° 0 mm 5 m/s 750 mmHg 22%
17:00 +33°C° 0 mm 5 m/s 750 mmHg 28%
18:00 +30°C° 0 mm 4 m/s 750 mmHg 33%
19:00 +28°C° 0 mm 4 m/s 750 mmHg 39%
20:00 +27°C° 0 mm 3 m/s 750 mmHg 42%
21:00 +26°C° 0 mm 3 m/s 750 mmHg 46%
22:00 +25°C° 0 mm 2 m/s 750 mmHg 49%
23:00 +25°C° 0 mm 2 m/s 750 mmHg 50%

Poimâine, 5 August, Joi

Timp Temperatura Precipitaţii Vânt Presiune Umiditate
00:00 +25°C° 0 mm 2 m/s 749 mmHg 50%
01:00 +25°C° 0 mm 2 m/s 749 mmHg 51%
02:00 +24°C° 0 mm 3 m/s 749 mmHg 51%
03:00 +24°C° 0 mm 3 m/s 748 mmHg 51%
04:00 +24°C° 0 mm 3 m/s 748 mmHg 52%
05:00 +25°C° 0 mm 4 m/s 747 mmHg 50%
06:00 +26°C° 0 mm 4 m/s 747 mmHg 47%
07:00 +27°C° 0 mm 5 m/s 747 mmHg 45%
08:00 +28°C° 0.1 mm 4 m/s 747 mmHg 42%
09:00 +29°C° 0.1 mm 4 m/s 746 mmHg 40%
10:00 +30°C° 0.1 mm 3 m/s 746 mmHg 37%
11:00 +30°C° 0.2 mm 4 m/s 746 mmHg 37%
12:00 +30°C° 0.2 mm 5 m/s 745 mmHg 37%
13:00 +30°C° 0.2 mm 6 m/s 745 mmHg 37%
14:00 +30°C° 0.1 mm 6 m/s 745 mmHg 39%
15:00 +29°C° 0.1 mm 6 m/s 745 mmHg 41%
16:00 +29°C° 0.1 mm 6 m/s 745 mmHg 42%
17:00 +27°C° 0.1 mm 5 m/s 745 mmHg 51%
18:00 +25°C° 0.1 mm 5 m/s 745 mmHg 61%
19:00 +22°C° 0.1 mm 5 m/s 745 mmHg 70%
20:00 +21°C° 0.1 mm 4 m/s 745 mmHg 73%
21:00 +20°C° 0.1 mm 3 m/s 746 mmHg 76%
22:00 +19°C° 0.1 mm 2 m/s 746 mmHg 79%
23:00 +19°C° 0 mm 3 m/s 746 mmHg 81%

6 August, Vineri

Timp Temperatura Precipitaţii Vânt Presiune Umiditate
00:00 +18°C° 0 mm 3 m/s 746 mmHg 84%
01:00 +17°C° 0 mm 4 m/s 746 mmHg 86%
02:00 +17°C° 0 mm 4 m/s 746 mmHg 85%
03:00 +17°C° 0 mm 4 m/s 746 mmHg 84%
04:00 +17°C° 0 mm 4 m/s 746 mmHg 84%
05:00 +18°C° 0 mm 4 m/s 746 mmHg 78%
06:00 +19°C° 0 mm 5 m/s 746 mmHg 72%
07:00 +20°C° 0 mm 5 m/s 746 mmHg 67%
08:00 +22°C° 0 mm 6 m/s 747 mmHg 58%
09:00 +24°C° 0 mm 6 m/s 747 mmHg 50%
10:00 +27°C° 0 mm 6 m/s 747 mmHg 41%
11:00 +28°C° 0 mm 6 m/s 747 mmHg 38%
12:00 +29°C° 0 mm 7 m/s 747 mmHg 35%
13:00 +30°C° 0 mm 7 m/s 747 mmHg 32%
14:00 +29°C° 0 mm 6 m/s 747 mmHg 33%
15:00 +29°C° 0 mm 6 m/s 747 mmHg 35%
16:00 +28°C° 0 mm 6 m/s 747 mmHg 36%
17:00 +27°C° 0 mm 5 m/s 747 mmHg 40%
18:00 +25°C° 0 mm 5 m/s 748 mmHg 44%
19:00 +23°C° 0 mm 4 m/s 748 mmHg 49%
20:00 +22°C° 0 mm 3 m/s 748 mmHg 54%
21:00 +20°C° 0 mm 3 m/s 749 mmHg 60%
22:00 +19°C° 0 mm 2 m/s 749 mmHg 66%
23:00 +18°C° 0 mm 2 m/s 749 mmHg 70%

7 August, Sâmbătă

Timp Temperatura Precipitaţii Vânt Presiune Umiditate
00:00 +18°C° 0 mm 2 m/s 749 mmHg 73%
01:00 +17°C° 0 mm 2 m/s 750 mmHg 77%
02:00 +17°C° 0 mm 2 m/s 750 mmHg 80%
03:00 +16°C° 0 mm 2 m/s 750 mmHg 83%
04:00 +16°C° 0 mm 2 m/s 750 mmHg 86%
05:00 +18°C° 0 mm 1 m/s 751 mmHg 78%
06:00 +20°C° 0 mm 1 m/s 751 mmHg 71%
07:00 +22°C° 0 mm 1 m/s 751 mmHg 64%
08:00 +24°C° 0 mm 1 m/s 751 mmHg 56%
09:00 +26°C° 0 mm 1 m/s 751 mmHg 48%
10:00 +28°C° 0 mm 1 m/s 751 mmHg 40%
11:00 +29°C° 0 mm 1 m/s 751 mmHg 36%
12:00 +30°C° 0 mm 2 m/s 751 mmHg 33%
13:00 +31°C° 0 mm 2 m/s 751 mmHg 29%
14:00 +32°C° 0 mm 2 m/s 750 mmHg 28%
15:00 +32°C° 0 mm 2 m/s 750 mmHg 26%
16:00 +34°C° 0 mm 2 m/s 750 mmHg 25%
17:00 +31°C° 0 mm 2 m/s 750 mmHg 29%
18:00 +29°C° 0 mm 2 m/s 750 mmHg 32%
19:00 +27°C° 0 mm 2 m/s 750 mmHg 36%
20:00 +26°C° 0 mm 2 m/s 751 mmHg 39%
21:00 +25°C° 0 mm 3 m/s 751 mmHg 42%
22:00 +24°C° 0 mm 3 m/s 751 mmHg 45%
23:00 +22°C° 0 mm 3 m/s 751 mmHg 46%

8 August, Duminică

Timp Temperatura Precipitaţii Vânt Presiune Umiditate
00:00 +22°C° 0 mm 3 m/s 752 mmHg 48%
01:00 +21°C° 0 mm 3 m/s 752 mmHg 50%
02:00 +21°C° 0 mm 2 m/s 752 mmHg 51%
03:00 +20°C° 0 mm 2 m/s 752 mmHg 52%
04:00 +20°C° 0 mm 2 m/s 752 mmHg 53%
05:00 +23°C° 0 mm 2 m/s 753 mmHg 48%
06:00 +24°C° 0 mm 2 m/s 753 mmHg 43%
07:00 +26°C° 0 mm 2 m/s 753 mmHg 38%
08:00 +29°C° 0 mm 2 m/s 753 mmHg 33%
09:00 +31°C° 0 mm 3 m/s 753 mmHg 28%
10:00 +35°C° 0 mm 3 m/s 753 mmHg 22%
11:00 +37°C° 0 mm 4 m/s 753 mmHg 20%
12:00 +38°C° 0 mm 4 m/s 752 mmHg 18%
13:00 +41°C° 0 mm 5 m/s 752 mmHg 16%
14:00 +41°C° 0 mm 5 m/s 752 mmHg 16%
15:00 +41°C° 0 mm 5 m/s 751 mmHg 16%
16:00 +42°C° 0 mm 5 m/s 751 mmHg 17%
17:00 +38°C° 0 mm 4 m/s 751 mmHg 21%
18:00 +36°C° 0 mm 4 m/s 752 mmHg 25%
19:00 +34°C° 0 mm 3 m/s 752 mmHg 29%
20:00 +31°C° 0 mm 3 m/s 752 mmHg 36%
21:00 +29°C° 0 mm 3 m/s 753 mmHg 43%
22:00 +27°C° 0 mm 2 m/s 753 mmHg 50%
23:00 +27°C° 0 mm 2 m/s 753 mmHg 50%
Arată mai mult

Formular de consimțământ

Meteoprog și furnizorii noștri de servicii pot stoca și accesa date personale, precum cookies, identificatori de dispozitiv sau alte tehnologii similare pe dispozitivul dumneavoastră și procesa astfel de date pentru a personaliza conținutul și reclamele, dar și pentru a oferi caracteristici de social media și pentru a analiza traficul.

  • Stocarea și/sau accesarea informațiilor pe dispozitivul dumneavoastră

    Cookies, identificatori de dispozitiv sau alte informații pot fi stocate sau accesate pe dispozitiv în scopurile indicate mai sus.

  • Reclame și conținut personalizat, evaluarea reclamelor și a conținutului, informații despre audiențe și dezvoltarea produselor

    Reclamele și conținutul pot fi personalizate pe baza unui profil. Pot fi adăugate date suplimentare pentru a personaliza mai bine reclamele și conținutul. Performanța reclamelor și conținutului poate fi măsurată. Pot fi obținute informații despre utilizatorii care au văzut reclamele și conținutul. Aceste date pot fi utilizate pentru a dezvolta sau îmbunătăți experiența utilizatorilor, sistemele și software-ul.

Dând clic pe ‘Sunt de acord’, permiteți utilizarea cookie-urilor menționate, a identificatorilor de dispozitiv, balizelor web sau altor tehnologii similare. Setările pot fi modificate din browser-ul dispozitivului dumneavoastră.

În anumite scopuri, interesele legitime pot prima asupra consimțământului. Puteți citi mai multe informații în acest sens în Politica privind Confidențialitatea Datelor și Cookie.